Location: Mascot Post Office (historical)
(40.2645°N, 99.5462°W)
Time: 02:27:40
(UTC+00:00)

Cosmos 2369 Rocket - Pass Details

Date: 14 July 2020
Orbit: 829 x 852 km, 71.0° (Epoch: 14 August)

Event Time Altitude Azimuth Distance (km) Brightness Sun altitude
Rises 06:07:05 0° 332° (NNW) 3,382 6.4 -27.5°
Reaches altitude 10° 06:09:34 10° 328° (NNW) 2,447 5.4 -27.6°
Enters shadow 06:14:45 53° 263° (W) 1,017 2.5 -27.8°
